Lucknow, India

4:16 AM IST on January 24, 2018 (GMT +0530)
Lucknow

Weather History for VILK - November, 2013

Change the Weather History Date:

Friday, November 29, 2013

  Actual Average Record
Temperature  
Mean Temperature 66 °F -  
Max Temperature 82 °F 68 °F 85 °F (2015)
Min Temperature 50 °F 51 °F 45 °F (2012)
Cooling Degree Days 1    
Growing Degree Days 16 (Base 50)    
Moisture  
Dew Point 58 °F    
Average Humidity 72    
Maximum Humidity 100    
Minimum Humidity 38    
Precipitation  
Precipitation 0.00 in - - ()
Sea Level Pressure  
Sea Level Pressure 29.99 in    
Wind  
Wind Speed 2 mph ()    
Max Wind Speed 6 mph    
Max Gust Speed -    
Visibility 1.2 miles    
Events Fog    
Averages and records for this station are not official NWS values.
T = Trace of Precipitation, MM = Missing Value Source: Averaged Metar Reports

Daily Weather History Graph

Daily Weather History Graph

Search for Another Location

Airport or City:

Trip Planner

Search our weather history database for the weather conditions in past years. The results will help you decide how hot, cold, wet, or windy it might be!

Date:

Astronomy

Nov. 29, 2013 Rise Set
Actual Time 6:36 AM IST 5:13 PM IST
Civil Twilight 6:11 AM IST 5:38 PM IST
Nautical Twilight 5:42 AM IST 6:06 PM IST
Astronomical Twilight 5:14 AM IST 6:34 PM IST
Moon 2:32 AM IST (11/29) 2:22 PM IST (11/29)
Length of Visible Light 11h 26m
Length of Day
10h 36m
Waning Crescent, 18% of the Moon is Illuminated
Nov 29
Waning Crescent
Dec 3
New
Dec 9
First Quarter
Dec 17
Full
Dec 25
Last Quarter

Hourly Weather History & Observations

Time (IST) Temp. Heat Index Dew Point Humidity Pressure Visibility Wind Dir Wind Speed Gust Speed Precip Events Conditions
12:00 AM 59.0 °F - 57.2 °F 94% 30.01 in 0.0 mi Variable 2.3 mph - N/A Fog Fog
1:00 AM 59.0 °F - 57.2 °F 94% 30.01 in 0.0 mi Variable 2.3 mph - N/A Fog Fog
2:00 AM 59.0 °F - 57.2 °F 94% 30.01 in 0.0 mi Calm Calm - N/A Fog Fog
2:30 AM 57 °F - 56 °F 95% 30.04 in 0 mi Calm Calm - - Fog Partial Fog
3:00 AM 57.2 °F - 55.4 °F 94% 30.01 in 0.0 mi Calm Calm - N/A Fog Fog
4:00 AM 57.2 °F - 55.4 °F 94% 30.01 in 0.2 mi Variable 2.3 mph - N/A Fog Fog
5:00 AM 57.2 °F - 55.4 °F 94% 30.01 in 0.0 mi Variable 2.3 mph - N/A Fog Fog
5:30 AM 56 °F - 54 °F 93% 30.03 in 0 mi 2.3 mph - - Fog Partial Fog
6:00 AM 55.4 °F - 55.4 °F 100% 30.01 in 0.1 mi Calm Calm - N/A Fog Fog
7:00 AM 53.6 °F - 53.6 °F 100% 30.04 in 0.0 mi Calm Calm - N/A Fog Fog
7:30 AM 53.6 °F - 53.6 °F 100% 30.04 in 0.0 mi Variable 2.3 mph - N/A Fog Fog
8:30 AM 61 °F - 58 °F 85% 30.09 in 0 mi 2.3 mph - - Fog Partial Fog
10:00 AM 69.8 °F - 60.8 °F 73% 30.06 in 1.2 mi WNW 3.5 mph - N/A   Mist
10:30 AM 71.6 °F - 62.6 °F 73% 30.06 in 1.6 mi WNW 3.5 mph - N/A   Mist
11:30 AM 76 °F - 61 °F 49% 30.06 in 1 mi WNW 3.5 mph - -   Haze
12:00 PM 77.0 °F - 60.8 °F 57% 30.04 in 2.2 mi WNW 5.8 mph - N/A   Haze
12:30 PM 78.8 °F - 60.8 °F 54% 30.01 in 2.2 mi NNW 5.8 mph - N/A   Haze
1:00 PM 78.8 °F - 60.8 °F 54% 30.01 in 2.2 mi WNW 4.6 mph - N/A   Haze
1:30 PM 80.6 °F 81.1 °F 59.0 °F 48% 29.98 in 2.5 mi WNW 4.6 mph - N/A   Haze
2:00 PM 80.6 °F 80.8 °F 57.2 °F 45% 29.95 in 2.5 mi NNW 3.5 mph - N/A   Haze
2:30 PM 81 °F - 60 °F 38% 29.95 in 2 mi NW 3.5 mph - -   Haze
2:30 PM 80.6 °F 81.1 °F 59.0 °F 48% 29.95 in 2.5 mi NW 3.5 mph - N/A   Haze
3:00 PM 80.6 °F 81.1 °F 59.0 °F 48% 29.92 in 2.2 mi WNW 4.6 mph - N/A   Haze
3:30 PM 80.6 °F 81.1 °F 59.0 °F 48% 29.92 in 2.2 mi West 5.8 mph - N/A   Haze
4:00 PM 78.8 °F - 59.0 °F 51% 29.92 in 2.2 mi West 5.8 mph - N/A   Haze
4:30 PM 78.8 °F - 57.2 °F 47% 29.92 in 2.2 mi West 4.6 mph - N/A   Haze
5:30 PM 74 °F - 60 °F 53% 29.94 in 1 mi 2.3 mph - -   Haze
5:30 PM 75.2 °F - 60.8 °F 61% 29.92 in 1.6 mi Variable 2.3 mph - N/A   Haze
6:00 PM 73.4 °F - 60.8 °F 65% 29.92 in 1.6 mi WSW 3.5 mph - N/A   Haze
6:30 PM 71.6 °F - 60.8 °F 69% 29.95 in 1.6 mi Variable 2.3 mph - N/A   Haze
7:00 PM 69.8 °F - 60.8 °F 73% 29.95 in 1.6 mi Variable 2.3 mph - N/A   Haze
7:30 PM 66.2 °F - 57.2 °F 73% 29.95 in 1.6 mi Variable 2.3 mph - N/A   Haze
8:00 PM 66.2 °F - 57.2 °F 73% 29.95 in 1.6 mi Variable 2.3 mph - N/A   Haze
8:30 PM 65 °F - 57 °F 69% 29.99 in 1 mi 2.3 mph - -   Haze
8:30 PM 64.4 °F - 59.0 °F 83% 29.98 in 1.2 mi Variable 2.3 mph - N/A   Haze
9:00 PM 64.4 °F - 59.0 °F 83% 29.98 in 1.2 mi Variable 2.3 mph - N/A   Haze
10:00 PM 62.6 °F - 57.2 °F 82% 29.98 in 1.2 mi Variable 2.3 mph - N/A   Haze
11:00 PM 60.8 °F - 57.2 °F 88% 29.98 in 1.2 mi Variable 2.3 mph - N/A   Haze
11:30 PM 60 °F - 54 °F 76% 29.99 in 1 mi 2.3 mph - -   Haze